Skip Page Navigation
NASA JPL Caltech
NASA Logo - Jet Propulsion Laboratory + View the NASA Portal
+ Near-Earth Object (NEO) Program
Search JPL
JPL Home Earth Solar System Stars & Galaxies Technology
JPL Solar System Dynamics
BODIES ORBITS EPHEMERIDES TOOLS PHYSICAL DATA DISCOVERY FAQ SITE MAP
JPL Small-Body Database Browser
Search: [ help ]  
26314 Skvorecky (1998 UJ1)
Classification: Main-belt Asteroid          SPK-ID: 2026314
Ephemeris | Orbit Diagram | Orbital Elements | Physical Parameters | Discovery Circumstances | Close-Approach Data ]

[ hide orbit diagram ]
Orbit Diagram
Note: Make sure you have Java enabled on your browser to see the applet. This applet is provided as a 3D orbit visualization tool. The applet was implemented using 2-body methods, and hence should not be used for determining accurate long-term trajectories (over several years or decades) or planetary encounter circumstances. For accurate long-term ephemerides, please instead use our Horizons system.
Orbit Viewer

Additional Notes: the orbits shown in the applet are color coded. The planets are white lines, and the asteroid/comet is a blue line. The bright white line indicates the portion of the orbit that is above the ecliptic plane, and the darker portion is below the ecliptic plane. Likewise for the asteroid/comet orbit, the light blue indicates the portion above the ecliptic plane, and the dark blue the portion below the ecliptic plane.

Orbit Viewer applet originally written and kindly provided by Osamu Ajiki (AstroArts), and further modified by Ron Baalke (JPL).


Orbital Elements at Epoch 2456400.5 (2013-Apr-18.0) TDB
Reference: JPL 1 (heliocentric ecliptic J2000)
 Element Value Uncertainty (1-sigma)   Units 
e .168477417100073 6.8038e-08  
a 2.533156616016454 2.7325e-08 AU
q 2.10637693224004 1.7788e-07 AU
i 7.177744471978154 1.0316e-05 deg
node 72.11449315292914 0.00011667 deg
peri 198.560899852177 0.00012791 deg
M 302.5991312065522 5.6324e-05 deg
tp 2456635.305061322350
(2013-Dec-08.80506132)
0.00023165 JED
period 1472.622694618426
4.03
2.3828e-05
6.524e-08
d
yr
n .2444618036348274 3.9555e-09 deg/d
Q 2.959936299792867 3.1929e-08 AU
  Orbit Determination Parameters
   # obs. used (total)      408  
   data-arc span      5857 days (16.04 yr)  
   first obs. used      1997-04-07  
   last obs. used      2013-04-20  
   planetary ephem.      DE405  
   SB-pert. ephem.      SB405-CPV-2  
   condition code      0  
   fit RMS      .60136  
   data source      ORB  
   producer      Otto Matic  
   solution date      2013-Apr-29 14:43:24  

Additional Information
 Earth MOID = 1.09191 AU 
 T_jup = 3.419 
[ show covariance matrix ]

Ephemeris | Orbit Diagram | Orbital Elements | Physical Parameters | Discovery Circumstances | Close-Approach Data ]

Physical Parameter Table
Parameter Symbol Value Units Sigma Reference Notes
absolute magnitude H 15.3 mag n/a PDS3 (MPO 13955)  

26314 Skvorecký           Discovered 1998 Oct. 16 by J. Ticha and M. Tichy at Klet.
Josef Skvorecký (b. 1924) is one of the preeminent Czech writers of the post-World War II generation known for mordant humor and sardonic irony. Together with his wife Zdena Salivarová, he operated The Sixty-Eight Publishers in Toronto, the main Czech exile publishing house.
NOTE: some special characters may not display properly (any characters within {} are an attempt to place the proper accent above a character)
Reference: 20010902/MPCPages.arcLast Updated: 2009-05-11

[ show close-approach data ]
Alternate Designations
 1998 UJ1 = 1997 GP38 
Ephemeris | Orbit Diagram | Orbital Elements | Physical Parameters | Discovery Circumstances | Close-Approach Data ]
ABOUT SSD CREDITS/AWARDS PRIVACY/COPYRIGHT GLOSSARY LINKS
FirstGov 2013-May-21 20:25 UT
(server date/time)  
NASA Home Page
Site Manager:   Donald K. Yeomans
Webmaster  Alan B. Chamberlin